Погода в Плоцке

Польша     52°32′07″N   19°42′51″E
темп.,
°C
ветер,
м/с
пор.,
м/с
влажн.,
%
обл.,
%
осадки,
мм/ч
давл.,
гПа
погр.,
м
25 февраля, чт
чт2501:00+7з238945 0.0 103022
04:00+6зюз239020 0.0 102922
07:00+6юз23919 0.0 102933
10:00+10юз24800 0.0 1029201
13:00+13ююз35700 0.0 1028328
16:00+12ююз35740 0.0 1025112
19:00+9юз36780 0.0 102598
22:00+8зюз48860 0.0 1025149
26 февраля, пт
пт2601:00+7з38920 0.0 1026166
04:00+7з49950 0.0 1025212
07:00+6з399733 0.0 1026263
10:00+8з587997 0.0 1026489
13:00+9зсз6106399 0.0 1026824
16:00+8з51071100 0.0 1025853
19:00+6з51277100 0.0 1025631
22:00+4зсз5148433 0.0 1025643
27 февраля, сб
сб2701:00+3зсз5128924 0.0 1026478
04:00+3зсз6138893 0.0 1025683
07:00+3зсз6128895 0.0 1026714
10:00+5сз698081 0.0 1027877
13:00+6сз697190 0.0 1029960
16:00+6ссз59666 0.0 10291014
19:00+3ссз38833 0.0 1031226
22:00+1ссз39910 0.0 1032298
28 февраля, вс
вс2801:000сз37940 0.0 1033184
04:00−1сз36930 0.0 1033175
07:00−1сз36901 0.0 1033175
10:00+3сз3574100 0.0 1033417
13:00+5ссз3464100 0.0 1033708
16:00+5сз226998 0.0 103378
19:00+1с238485 0.0 103422
22:00+1ссв369354 0.0 1036158
1 марта, пн
пн101:000с229439 0.0 103622
04:000ссв12930 0.0 103721
07:000ссв11946 0.0 103821
10:00+5с11764 0.0 1039351
13:00+6зюз116714 0.0 1039781
16:00+6з127238 0.0 103891
19:00+2юз228632 0.0 103922
22:00+1юз23898 0.0 104027